Location: Prosper
(33.2362°N, 96.8011°W)
Time: 10:00:54
(UTC+00:00)

NOAA 6 - Pass Details

Date: 03 December 2021
Orbit: 772 x 786 km, 98.7° (Epoch: 23 January)

Event Time Altitude Azimuth Distance (km) Brightness Sun altitude
Rises 12:40:51 0° 13° (NNE) 3,252 7.2 -7.3°
Reaches altitude 10° 12:43:10 10° 15° (NNE) 2,321 6.4 -6.8°
Maximum altitude 12:48:17 83° 103° (ESE) 783 4.2 -5.8°
Drops below altitude 10° 12:53:24 10° 191° (SSW) 2,311 6.7 -4.9°
Sets 12:55:42 0° 192° (SSW) 3,236 7.4 -4.4°
